Regional Weather Roundup
Issued by NWS

Home | Current Version | Previous Version | Text Only | Print | Product List | Glossary On
Versions: 1 2 3 4 5 6 7 8 9 10 11 12 13 14 15 16 17 18 19 20 21 22 23 24 25 26 27 28 29 30 31 32 33 34 35 36 37 38 39 40 41 42 43 44 45 46 47 48 49 50
000
ASUS44 KEWX 110311
RWRTX
SOUTH TEXAS REGIONAL WEATHER ROUNDUP
NATIONAL WEATHER SERVICE AUSTIN/SAN ANTONIO TX
900 PM CST WED FEB 10 2016

NOTE: "FAIR" INDICATED FEW OR NO CLOUDS BELOW 12,000 FEET WITH NO
SIGNIFICANT WEATHER AND/OR OBSTRUCTIONS TO VISIBILITY.

* - THESE STATIONS ARE NOT NWS OR FAA STATIONS...AND ARE NOT SUBJECT
    TO NWS AND FAA QUALITY CONTROL.

TXZ171-172-183>190-110400-
TEXAS HILL COUNTRY AND EDWARDS PLATEAU

CITY           SKY/WX    TMP DP  RH WIND       PRES   REMARKS
JUNCTION       CLEAR     58  26  29 S7        30.21S
*LLANO         CLEAR     59  32  36 CALM      30.21R
BURNET         CLEAR     60  30  32 S9        30.20S
*HORSESHOE BAY CLEAR     64  31  28 S7        30.18S
*KERRVILLE     CLEAR     51  32  48 CALM      30.23F
*FREDERICKSBRG CLEAR     57  28  32 CALM      30.21F
*ROCKSPRINGS   CLEAR     61  30  31 S8        30.26S
*BOERNE STAGE  CLEAR     46  32  57 SW3       30.24F
*CASTROVILLE   CLEAR     58  26  29 CALM      30.23F
HONDO          CLEAR     54  24  31 SW3       30.24F
*UVALDE        CLEAR     56  30  37 SE3       30.23F
DEL RIO        CLEAR     62  27  26 E6        30.19F
LAUGHLIN AFB   CLEAR     56  27  32 SE3       30.20S
CARRIZO SPRGS  CLEAR     59  28  31 S6        30.22S
*EAGLE PASS    CLEAR     61  27  27 SE7       30.21F
$$

TXZ173-191>194-202-209-217>225-228-110400-
CENTRAL AND SOUTH CENTRAL TEXAS

CITY           SKY/WX    TMP DP  RH WIND       PRES   REMARKS
GEORGETOWN     CLEAR     61  34  36 S10       30.16F
AUSTIN/BERGSTM CLEAR     57  34  41 S8        30.19S
AUSTIN/MABRY   CLEAR     60  34  37 SW5       30.20S
*AUSTIN/EXEC   CLEAR     57  36  44 SW9       30.18F
*LAGO VISTA    CLEAR     65  31  28 SW7       30.19S
SAN MARCOS     CLEAR     55  32  41 SW8       30.21F
NEW BRAUNFELS  CLEAR     55  31  39 SW6       30.20S
RANDOLPH AFB   CLEAR     61  30  31 SW6       30.21F
PT SAN ANTONIO CLEAR     54  33  44 S2        30.20F
SAN ANTONIO    CLEAR     65  29  25 S3        30.22S
STINSON FIELD  CLEAR     55  34  45 SW3       30.20F
*PLEASANTON    CLEAR     62  36  38 SE7       30.23F
*LA GRANGE     CLEAR     58  46  66 S9        30.19F
*GIDDINGS      CLEAR     58  43  56 S7        30.23F
*GONZALES      CLEAR     57  43  59 S7        30.22S
$$

TXZ163>164-176>182-195>201-210>213-226-227-235-110400-
SOUTHEAST TEXAS

CITY           SKY/WX    TMP DP  RH WIND       PRES   REMARKS
COLLEGE STN    CLEAR     58  39  49 S12       30.19S
*BRYAN         CLEAR     60  37  42 S12G17    30.19S
*CALDWELL      CLEAR     55  37  50 S10       30.21F
*CROCKETT      CLEAR     54  36  50 S7        30.19S
*BRENHAM       CLEAR     58  45  60 S8        30.22S
HUNTSVILLE     CLEAR     59  39  47 S13G23    30.18S
CONROE         CLEAR     54  38  54 S10       30.22R
HOUSTON BUSH   CLEAR     57  43  59 S8        30.23S
HOUSTON HOBBY  CLEAR     54  45  71 S7        30.23F
*HOUSTON SW AP CLEAR     52  45  76 S5        30.24F
PEARLAND       CLEAR     54  46  74 S5        30.26S
HOUSTON HOOKS  CLEAR     57  43  59 S8        30.22S
ELLINGTON FLD  CLEAR     54  45  71 S6        30.26S
SUGAR LAND     CLEAR     53  45  74 S9        30.23F
*HOUSTON EXEC  CLEAR     54  46  76 S9        30.24F
*CLEVELAND MUN CLEAR     49  44  81 S5        30.23S WCI  47
*WHARTON       CLEAR     50  45  83 S7        30.25F WCI  47
*COLUMBUS      FAIR      53  46  76 S8        30.22F
*EAGLE LAKE    CLEAR     56  48  74 S9        30.23S
$$

TXZ214>216-236>238-110400-
THE UPPER TEXAS COAST

CITY           SKY/WX    TMP DP  RH WIND       PRES   REMARKS
*ORANGE        CLEAR     51  44  77 S7        30.26F
PORT ARTHUR    CLEAR     49  45  86 S7        30.24F WCI  46
GALVESTON      CLEAR     58  53  84 S12       30.26F
ANGLETON       CLEAR     52  48  86 S8        30.25F
*BAY CITY      CLEAR     54  53  95 S5        30.25F
PALACIOS       CLEAR     60  54  80 S10       30.25F
$$

TXZ229>234-239>247-110400-
TEXAS COASTAL BEND AND RIO GRANDE PLAINS

CITY           SKY/WX    TMP DP  RH WIND       PRES   REMARKS
VICTORIA       CLEAR     53  48  83 S9        30.25S
*BEEVILLE      CLEAR     54  49  82 SE3       30.26S
ROCKPORT       CLEAR     62  53  72 S8        30.26S
*PORT ARANSAS  CLEAR     60  55  81 S12       30.26F
*PORT LAVACA   CLEAR     57  51  81 S10       30.26S
*INGLESIDE     CLEAR     60  52  77 S10G16    30.26S
CORPUS CHRISTI CLEAR     59  49  69 S14       30.26F
CORPUS NAS     CLEAR     62  54  74 S13       30.27S
*ROBSTOWN      CLEAR     60  50  70 S12       30.26F
ALICE            N/A     53  43  68 S7        30.25S
KINGSVILLE NAS CLEAR     57  50  77 SE10      30.26S
COTULLA        CLEAR     61  29  29 S3        30.23S
*FAITH RANCH   CLEAR     64  25  22 SE9       30.23S
LAREDO         CLEAR     62  30  29 SE7       30.24
$$

TXZ248>255-110400-
DEEP SOUTH TEXAS

CITY           SKY/WX    TMP DP  RH WIND       PRES   REMARKS
BROWNSVILLE    PTCLDY    56  47  71 S8        30.31S
PORT ISABEL    PTCLDY    61  49  64 S12       30.30S
*SOUTH PADRE     N/A     61  55  82 E10       30.31S
HARLINGEN      PTCLDY    57  43  59 S10       30.29S
*HEBBRONVILLE  NOT AVBL
MCALLEN        CLEAR     63  40  42 SE12      30.29R
*WESLACO       PTCLDY    62  43  49 S9        30.29R
FALFURRIAS     CLEAR     61  36  38 SE8       30.27R
EDINBURG       PTCLDY    64  36  35 S8        30.28S
*ZAPATA        PTCLDY    64  28  25 SE8       30.24R
$$

TXZ213>215-236>238-242>244-246-247-251-254-255-110400-
CMAN STATIONS

STATION/POSITION TIME  TEMP    WIND        PRES    WAVE
                       AIR SEA DIR/SP/G            HT/PER
                 (UTC) (F)     (DEG/KT/KT) (MB)    (FT/S)
SABINE PASS      0200   55 55                N/A
SEA RIM ST PARK  0300   57     200/ 12/ 15 1024.8
NORTH JETTY/GLS  0200   59 59                N/A
EAGLE POINT      0200   57 53                N/A
MORGANS POINT    0200   56 52                N/A
MISSION/ARANSAS  0200   62                 1025.0
PORT O`CONNOR    0200          170/ 13/ 14   N/A
PORT ARANSAS     0300   62 61  170/ 17/ 18 1025.3
MALAQUITE BEACH  0200   62 61                N/A
BAFFIN BAY       0200   62 62                N/A
PORT ISABEL      0200   62 60                N/A
$$

GMZ080-GMZ150>470-110400-
OFFSHORE BUOY REPORTS

STATION/POSITION TIME  TEMP    WIND        PRES    WAVE
                       AIR SEA DIR/SP/G            HT/PER
                 (UTC) (F)     (DEG/KT/KT) (MB)    (FT/S)
20 E GALVESTON   0250   59 58  190/ 10/ 12 1024.6    1/ 3
90 E PT ARANSAS  0250   67 68  200/ 16/ 17 1025.4    2/ 3
35 NE PT MANSFLD 0250   67 67  190/ 19/ 23 1025.2    3/ 4
200 E PT ISABEL  0250                        N/A     2/ 6
$$



USA.gov is the U.S. government's official web portal to all federal, state and local government web resources and services.